Theta_e
299 298 299 299 299 300 301 301 300 300 299 298 297 296 295 294 294 292 291 291 290 290 290 289 289 290 289 289 289 290 290 289 287 288 289 289 289 288 290 292 292 292 293
294 294 294 294 294 294 294 294 295 294 294 293 293 291 289 289 289 289 288 288 287 287 287 287 286 288 287 288 287 287 287 288 287 284 287 286 287 288 288 287 289 290 290
291 291 291 291 291 291 290 291 291 291 289 288 288 287 286 286 286 286 286 286 286 286 285 285 286 286 284 284 285 286 287 287 286 284 283 286 286 287 286 287 287 287 288
289 289 288 288 288 289 289 288 287 286 286 286 285 285 285 285 285 285 285 284 284 285 285 285 285 284 283 283 284 285 285 284 284 284 283 284 284 285 285 284 283 284 284
288 287 286 286 287 286 285 285 284 284 284 284 284 283 284 285 286 285 284 284 284 284 283 283 283 283 286 286 285 284 284 284 283 283 282 283 283 283 282 284 283 284 285
287 286 285 285 284 284 284 283 284 283 283 283 282 282 282 285 290 290 286 284 283 283 283 282 282 282 285 286 286 287 286 284 282 282 282 281 282 283 283 283 283 282 280
284 284 284 284 283 283 283 283 282 282 282 282 281 282 281 284 289 289 286 283 282 282 282 282 283 283 282 283 285 286 286 287 287 284 282 282 282 283 284 283 282 281 281
283 283 283 283 282 282 282 281 281 281 281 280 280 280 280 284 288 287 286 283 283 283 283 283 282 282 283 284 284 284 284 283 284 285 284 284 285 285 285 284 283 282 282
283 283 282 282 281 280 279 279 280 279 278 278 279 278 278 279 287 287 285 281 282 282 283 283 283 283 285 287 284 283 283 284 287 288 288 288 287 287 286 283 280 278 276
282 282 281 280 279 278 279 278 277 277 278 279 279 278 278 275 283 286 285 281 277 281 282 283 284 282 287 287 284 284 282 283 284 284 283 284 285 284 286 284 282 278 276
280 279 278 278 277 277 276 275 274 275 277 274 275 275 273 274 278 284 285 283 283 282 282 279 281 285 287 287 287 282 282 286 284 282 282 282 282 282 283 283 283 280 277
277 276 275 274 276 274 273 271 274 273 273 272 272 274 275 275 280 282 284 284 285 281 281 280 279 285 285 286 285 285 286 287 281 280 280 279 279 281 281 282 282 281 277
274 272 271 272 273 273 274 274 273 273 274 274 274 271 272 274 273 281 282 283 283 278 280 282 284 284 284 281 283 284 283 282 280 275 276 278 278 280 281 280 277 270 269
272 271 272 272 273 274 274 273 272 271 271 271 272 270 270 272 272 273 275 273 278 278 280 277 280 280 280 278 275 277 279 280 279 278 278 278 277 275 278 278 271 272 264
272 272 272 273 271 271 273 272 272 272 272 269 266 268 267 265 271 281 278 271 273 278 270 264 265 266 267 267 268 269 271 272 272 275 275 276 275 275 275 276 272 268 268
271 272 271 270 271 271 271 269 274 275 277 279 279 273 268 279 280 280 280 280 279 279 261 258 260 263 264 266 265 266 267 267 269 271 273 273 273 272 272 274 272 270 269
274 270 270 270 268 267 266 267 266 266 275 276 277 277 278 277 277 278 277 277 275 268 255 254 256 258 260 263 262 263 264 266 267 269 269 270 270 270 270 271 272 272 272
267 268 267 266 265 264 264 263 260 260 260 259 268 272 276 275 276 275 274 267 256 256 251 252 253 254 256 258 258 259 262 263 265 265 265 266 268 268 268 269 270 271 271
264 264 263 263 262 262 259 256 255 253 253 253 254 264 263 272 273 271 269 253 253 251 250 250 251 252 254 254 255 256 256 259 262 260 261 262 264 265 266 267 268 270 271
260 263 262 261 260 260 258 258 255 253 254 252 252 253 253 256 254 252 250 249 248 250 250 250 250 250 251 251 252 252 254 255 256 255 257 261 262 263 264 265 266 267 268
262 261 262 261 260 259 259 258 258 256 255 252 254 253 266 259 254 251 250 249 251 250 250 249 249 249 249 250 250 250 251 254 255 255 254 258 260 260 262 264 264 266 267
262 262 262 261 260 259 257 256 255 255 255 254 253 251 269 254 250 251 250 251 252 251 251 251 252 251 252 252 251 251 252 253 254 253 254 256 258 259 261 261 261 263 264
260 259 259 259 259 257 256 253 254 254 254 253 252 252 250 250 250 251 252 252 249 249 249 249 253 255 252 252 252 254 254 255 255 252 254 254 254 258 258 259 259 260 261
260 260 261 259 257 257 258 255 254 254 254 253 251 252 252 251 251 252 252 251 249 251 251 251 252 253 253 253 252 253 254 254 254 255 254 254 255 258 259 258 258 258 259
260 260 259 259 257 258 256 254 253 252 252 253 252 250 251 251 252 255 255 254 252 251 252 252 252 252 254 254 253 252 253 258 256 255 253 252 254 255 256 258 258 255 255
258 259 258 258 254 255 256 254 254 254 253 254 254 255 256 257 257 257 256 255 253 253 253 252 252 253 253 253 253 255 256 260 259 258 256 255 256 257 254 254 256 254 255
Wind_Speed
4 4 6 6 6 7 6 9 7 6 7 7 7 7 6 7 7 7 6 6 7 6 5 5 5 4 4 4 4 3 3 3 7 6 5 6 9 8 9 9 10 10 10
4 5 6 7 7 7 6 9 8 8 6 7 8 8 7 7 6 7 7 6 6 6 6 6 6 4 4 4 3 4 3 4 7 13 10 8 11 13 11 10 10 8 10
5 6 6 6 7 8 8 9 9 8 6 6 7 7 7 6 7 6 6 6 6 5 5 5 4 5 4 3 3 3 5 6 8 9 11 9 9 9 11 10 11 11 8
6 6 6 6 5 8 8 9 8 7 7 7 7 7 7 6 6 6 6 6 6 5 5 5 5 5 5 5 4 5 5 6 6 7 8 11 10 10 9 12 13 8 10
7 7 6 6 7 7 8 8 7 7 6 6 7 6 6 6 4 5 5 5 5 5 5 5 5 5 9 7 4 5 5 5 7 8 9 9 10 11 12 11 12 13 11
7 8 6 7 7 7 7 7 7 7 6 6 6 6 6 3 9 10 6 5 5 4 3 3 3 4 6 10 10 12 9 7 8 7 9 10 11 11 11 10 12 11 14
8 6 6 6 7 6 6 6 6 6 5 5 5 5 5 4 9 10 9 3 4 3 3 2 2 2 3 3 7 10 10 13 14 11 11 10 13 11 13 11 13 13 13
7 7 6 6 7 6 6 6 6 4 5 4 5 5 5 4 7 6 5 3 2 2 2 3 4 5 5 6 6 7 8 6 8 8 8 11 11 12 11 12 13 14 12
8 7 6 6 6 6 6 6 4 4 3 3 4 4 4 2 3 5 4 2 0 1 2 3 4 4 8 13 8 8 9 8 8 13 17 19 22 22 19 11 9 8 13
9 8 6 6 6 6 6 6 2 2 4 3 4 3 3 3 3 4 2 1 1 2 2 3 8 7 14 14 8 9 11 12 7 6 7 12 14 13 17 8 7 9 9
8 8 6 5 6 6 5 2 4 4 4 4 4 3 4 3 4 5 5 1 1 1 3 2 3 12 14 16 18 7 9 13 9 7 8 7 8 8 7 5 6 7 8
9 8 6 5 4 4 6 3 4 4 5 3 4 3 2 2 3 3 5 5 6 1 4 3 4 12 17 18 15 19 21 16 4 6 7 8 7 7 7 8 8 7 5
9 7 5 6 5 5 6 6 4 4 3 3 3 2 1 2 2 4 6 6 6 2 2 6 14 15 15 12 16 19 14 4 4 4 7 7 5 7 9 8 5 5 6
10 8 7 7 5 4 3 3 4 3 3 3 3 2 2 1 2 3 3 3 4 4 5 4 9 11 12 12 8 9 7 7 7 7 8 7 5 5 7 6 3 5 3
8 6 5 4 4 4 3 3 3 2 3 3 3 3 3 2 3 4 5 2 2 4 4 3 3 3 4 3 4 5 6 6 7 7 8 9 6 7 7 6 3 3 2
7 6 5 5 5 5 5 3 1 3 6 7 8 5 2 5 3 5 6 5 9 10 5 3 3 2 3 4 4 5 4 5 6 7 7 7 8 7 8 7 3 3 4
8 6 5 5 5 5 3 4 5 1 3 4 4 3 6 2 3 3 5 6 7 5 3 1 1 2 3 3 3 3 5 6 8 5 7 7 7 7 8 7 6 6 6
5 6 5 4 4 4 4 4 3 4 3 2 3 3 2 1 3 2 3 5 3 4 2 2 3 3 2 2 3 3 5 5 5 5 6 6 7 7 7 7 7 7 7
5 4 4 3 3 4 4 3 3 3 3 2 3 3 3 4 1 2 4 3 3 2 2 3 3 3 3 2 3 3 3 4 5 4 4 5 6 7 7 7 8 10 10
4 6 6 5 5 4 4 4 3 3 3 3 3 4 2 2 1 2 1 2 3 3 3 4 4 3 3 3 3 3 3 3 3 3 3 5 5 6 6 7 7 8 7
5 5 8 5 5 5 4 6 4 4 3 3 4 4 9 4 4 4 4 3 4 4 4 4 3 4 3 3 3 2 3 4 4 3 3 4 4 6 6 6 7 7 7
7 7 7 7 5 5 5 4 4 4 4 4 4 3 11 2 3 4 4 4 5 5 4 3 3 4 4 4 4 3 4 5 5 3 4 4 3 4 5 6 6 7 6
5 4 5 3 4 4 4 4 4 5 4 5 4 3 2 3 3 4 5 5 4 4 3 3 4 5 4 4 4 4 5 5 5 4 4 4 3 4 4 5 6 6 6
7 8 8 6 5 5 6 6 5 6 5 4 4 4 4 4 4 5 5 5 4 4 3 4 4 6 5 5 4 4 5 5 5 6 7 5 5 5 4 4 4 5 6
7 7 7 7 7 7 5 4 4 4 4 4 4 3 4 4 4 5 5 4 4 4 5 4 5 6 9 10 8 8 8 11 8 7 4 5 7 7 5 5 5 3 3
6 6 6 5 4 5 5 5 5 5 5 4 5 5 6 5 5 5 5 5 5 5 6 4 6 10 10 8 9 10 10 12 10 10 6 6 6 6 4 5 7 3 4
Wind_Direction
115 107 98 86 84 88 99 102 88 83 86 86 84 82 76 74 67 80 77 69 74 68 46 53 48 25 16 14 11 360 353 337 286 306 327 319 317 318 312 312 312 315 314
118 102 96 98 97 96 105 88 92 85 69 93 94 89 79 71 69 76 76 64 71 59 41 39 29 16 21 16 11 357 345 323 311 303 316 320 320 321 311 312 317 309 313
104 99 87 87 96 101 93 98 93 97 88 79 84 82 80 72 73 67 75 71 68 64 50 42 21 19 18 9 352 346 335 330 319 309 309 312 314 318 317 311 312 308 297
106 96 96 91 95 98 96 92 93 90 92 84 77 86 83 79 76 75 76 72 61 50 38 35 27 29 22 5 348 339 330 318 311 309 306 313 318 322 315 318 314 307 306
112 105 102 97 89 90 92 91 90 87 90 91 93 78 76 74 77 85 75 69 61 50 41 35 33 34 21 2 349 337 329 317 320 317 312 311 318 322 323 317 302 308 309
116 113 110 104 102 100 101 97 95 89 84 82 79 89 88 73 75 74 80 75 68 68 63 50 39 21 6 353 343 332 327 322 314 310 309 304 306 309 309 304 301 314 317
123 123 125 123 115 113 109 105 99 97 104 97 93 93 91 74 75 74 74 80 87 72 54 21 348 322 329 291 306 309 310 304 305 300 298 299 300 303 299 305 315 303 303
129 132 132 127 125 123 113 105 104 103 109 93 75 67 76 62 85 95 111 115 91 51 7 331 321 319 315 319 301 296 305 299 284 289 286 295 292 301 307 305 306 302 298
147 146 142 137 131 126 117 117 104 102 93 95 96 90 102 90 98 111 123 105 15 305 298 303 309 279 291 318 318 299 300 298 284 289 302 308 308 308 309 310 308 315 316
156 148 135 133 133 127 129 126 112 118 118 116 112 98 108 70 18 17 34 185 295 285 321 332 321 315 313 318 318 310 308 312 307 303 300 304 296 290 296 290 296 311 311
127 123 122 123 124 125 125 115 134 119 96 65 85 67 72 72 18 48 21 27 272 278 326 287 275 313 314 315 318 310 295 301 313 306 300 295 288 285 285 279 279 279 299
122 117 114 108 108 115 119 101 96 104 111 119 116 85 45 16 39 30 26 4 345 317 313 264 277 313 326 323 322 311 305 304 303 298 301 308 303 301 303 301 289 277 280
120 126 132 128 134 153 147 141 124 133 137 120 116 121 228 275 284 334 332 326 320 322 263 307 335 329 335 323 315 317 313 285 273 283 293 296 286 300 299 298 297 290 271
142 150 151 151 148 134 112 129 136 147 133 149 162 161 205 287 275 271 255 269 299 325 331 9 340 342 349 341 345 341 341 339 323 304 298 296 296 311 306 317 300 321 314
139 146 146 130 134 129 130 154 159 184 150 162 198 174 153 273 259 339 332 315 305 346 14 26 9 3 337 333 332 328 339 335 332 326 319 309 313 313 311 315 294 301 274
149 161 160 153 164 168 160 136 34 149 196 198 189 171 251 246 297 332 323 345 353 352 44 37 340 335 304 321 327 329 319 328 323 316 315 325 316 318 314 312 290 269 287
166 157 162 166 160 161 161 170 162 284 240 170 188 213 228 174 302 322 339 14 17 45 84 354 277 287 278 303 306 315 315 318 312 322 319 320 317 315 318 314 312 305 302
135 151 165 174 164 160 175 174 146 168 182 249 278 250 177 323 278 26 9 47 18 19 108 197 248 271 287 293 302 303 314 319 320 325 319 324 321 322 321 323 323 321 317
157 161 161 160 159 167 157 149 166 163 184 209 332 326 4 319 270 44 92 136 175 227 223 231 226 248 270 276 280 291 282 302 312 312 310 318 325 327 321 324 319 326 326
155 165 170 170 172 179 167 172 179 195 194 206 202 219 301 57 18 304 273 169 198 224 220 228 251 249 256 259 276 282 303 307 305 297 301 312 320 321 319 322 324 326 327
173 173 184 183 181 182 188 199 187 184 203 213 228 222 216 182 208 213 224 218 219 224 222 214 236 242 248 252 257 278 273 280 278 274 279 289 311 318 318 318 318 321 325
182 187 187 195 179 185 193 193 188 195 200 208 232 255 243 151 194 217 229 239 237 231 224 218 238 227 226 225 225 230 254 267 273 268 275 278 287 303 311 317 319 321 322
170 163 182 188 192 178 179 189 196 201 208 212 216 230 229 226 224 234 239 244 242 244 235 211 241 263 246 238 223 217 235 246 245 228 254 265 267 283 288 304 315 319 324
183 188 191 188 188 203 206 196 201 208 211 210 207 218 224 228 233 242 247 253 256 258 241 235 227 238 259 256 240 238 239 245 237 241 231 243 262 270 274 283 289 301 310
189 187 187 189 191 203 204 205 196 206 213 211 215 216 230 234 245 248 248 241 249 252 258 250 249 246 254 257 255 253 251 264 258 238 226 221 239 248 248 262 271 264 267
193 194 186 184 170 194 197 208 204 203 215 219 222 227 230 236 241 248 253 247 249 250 254 246 248 254 259 257 255 257 252 260 257 244 231 226 240 246 221 238 258 239 257